| time (UTC) | temp C | wind direction | speed KPH | gust KPH | rain 1hr cm | rain 24hr cm | rain mn cm | humidity % | barometer mb |
| 20260507041101 | 16 | 254 | 4.8 | 17.7 | 0.00 | 0.00 | 0.00 | 72 | 1015.8 |
| 20260507040101 | 16 | 223 | 9.7 | 12.9 | 0.00 | 0.00 | 0.00 | 72 | 1015.7 |
| 20260507035600 | 16 | 243 | 6.4 | 16.1 | 0.00 | 0.00 | 0.00 | 72 | 1015.5 |
| 20260507035100 | 16 | 246 | 6.4 | 16.1 | 0.00 | 0.00 | 0.00 | 71 | 1015.5 |
| 20260507034600 | 17 | 223 | 12.9 | 16.1 | 0.00 | 0.00 | 0.00 | 71 | 1015.5 |
| 20260507034059 | 17 | 225 | 9.7 | 17.7 | 0.00 | 0.00 | 0.00 | 71 | 1015.5 |
| 20260507033059 | 17 | 232 | 11.3 | 14.5 | 0.00 | 0.00 | 0.00 | 70 | 1015.4 |
| 20260507032559 | 17 | 225 | 8.0 | 17.7 | 0.00 | 0.00 | 0.00 | 69 | 1015.4 |
| 20260507031559 | 17 | 228 | 9.7 | 19.3 | 0.00 | 0.00 | 0.00 | 69 | 1015.3 |
| 20260507031059 | 17 | 229 | 6.4 | 22.5 | 0.00 | 0.00 | 0.00 | 68 | 1015.2 |
| 20260507030558 | 17 | 197 | 9.7 | 22.5 | 0.00 | 0.00 | 0.00 | 68 | 1015.1 |
| 20260507025058 | 17 | 219 | 9.7 | 20.9 | 0.00 | 0.00 | 0.00 | 68 | 1014.9 |
| 20260507024558 | 17 | 220 | 14.5 | 20.9 | 0.00 | 0.00 | 0.00 | 68 | 1014.8 |
| 20260507024058 | 18 | 261 | 14.5 | 20.9 | 0.00 | 0.00 | 0.00 | 67 | 1014.8 |
| 20260507023557 | 18 | 238 | 14.5 | 17.7 | 0.00 | 0.00 | 0.00 | 67 | 1014.7 |
| 20260507023058 | 18 | 215 | 6.4 | 17.7 | 0.00 | 0.00 | 0.00 | 66 | 1014.6 |
| 20260507022557 | 18 | 236 | 14.5 | 22.5 | 0.00 | 0.00 | 0.00 | 65 | 1014.6 |
| 20260507022057 | 18 | 201 | 12.9 | 22.5 | 0.00 | 0.00 | 0.00 | 65 | 1014.7 |
| 20260507021557 | 18 | 290 | 11.3 | 17.7 | 0.00 | 0.00 | 0.00 | 64 | 1014.6 |
| 20260507020557 | 19 | 246 | 11.3 | 19.3 | 0.00 | 0.00 | 0.00 | 63 | 1014.5 |
| 20260507020057 | 19 | 226 | 9.7 | 17.7 | 0.00 | 0.00 | 0.00 | 63 | 1014.6 |
| 20260507015556 | 19 | 248 | 12.9 | 22.5 | 0.00 | 0.00 | 0.00 | 62 | 1014.4 |
| 20260507015056 | 20 | 265 | 6.4 | 22.5 | 0.00 | 0.00 | 0.00 | 61 | 1014.4 |
| 20260507014556 | 20 | 238 | 12.9 | 22.5 | 0.00 | 0.00 | 0.00 | 61 | 1014.3 |
| 20260507014056 | 20 | 245 | 8.0 | 22.5 | 0.00 | 0.00 | 0.00 | 60 | 1014.4 |
| 20260507013556 | 20 | 279 | 17.7 | 22.5 | 0.00 | 0.00 | 0.00 | 59 | 1014.2 |
| 20260507013055 | 20 | 283 | 9.7 | 20.9 | 0.00 | 0.00 | 0.00 | 59 | 1014.3 |
| 20260507012555 | 20 | 276 | 12.9 | 22.5 | 0.00 | 0.00 | 0.00 | 59 | 1014.2 |
| 20260507012055 | 21 | 242 | 19.3 | 24.1 | 0.00 | 0.00 | 0.00 | 58 | 1014.2 |
| 20260507011555 | 21 | 262 | 17.7 | 24.1 | 0.00 | 0.00 | 0.00 | 57 | 1014.1 |
| 20260507011055 | 21 | 269 | 12.9 | 24.1 | 0.00 | 0.00 | 0.00 | 57 | 1014.2 |
| 20260507010555 | 21 | 232 | 9.7 | 24.1 | 0.00 | 0.00 | 0.00 | 57 | 1014.2 |
| 20260507010054 | 21 | 260 | 9.7 | 24.1 | 0.00 | 0.00 | 0.00 | 56 | 1014.1 |
| 20260507005555 | 21 | 300 | 11.3 | 20.9 | 0.00 | 0.00 | 0.00 | 55 | 1014.1 |
| 20260507005055 | 21 | 273 | 17.7 | 22.5 | 0.00 | 0.00 | 0.00 | 55 | 1014.0 |
| 20260507004554 | 21 | 284 | 14.5 | 22.5 | 0.00 | 0.00 | 0.00 | 55 | 1014.0 |
| 20260507004054 | 21 | 288 | 17.7 | 22.5 | 0.00 | 0.00 | 0.00 | 54 | 1014.1 |
| 20260507003553 | 21 | 284 | 11.3 | 22.5 | 0.00 | 0.00 | 0.00 | 55 | 1014.1 |
| 20260507003053 | 21 | 243 | 8.0 | 22.5 | 0.00 | 0.00 | 0.00 | 55 | 1014.0 |
| 20260507002554 | 21 | 275 | 11.3 | 25.7 | 0.00 | 0.00 | 0.00 | 56 | 1014.1 |
| 20260507002053 | 21 | 294 | 19.3 | 25.7 | 0.00 | 0.00 | 0.00 | 55 | 1014.0 |
| 20260507001553 | 21 | 272 | 12.9 | 22.5 | 0.00 | 0.00 | 0.00 | 55 | 1014.0 |
| 20260507001053 | 21 | 268 | 12.9 | 24.1 | 0.00 | 0.00 | 0.00 | 55 | 1014.0 |
| 20260507000552 | 21 | 297 | 16.1 | 27.4 | 0.00 | 0.00 | 0.00 | 56 | 1013.9 |
| 20260507000052 | 21 | 281 | 11.3 | 27.4 | 0.00 | 0.00 | 0.00 | 55 | 1013.8 |
| 20260506235552 | 22 | 290 | 25.7 | 27.4 | 0.00 | 0.00 | 0.00 | 55 | 1013.8 |
| 20260506235053 | 22 | 242 | 14.5 | 27.4 | 0.00 | 0.00 | 0.00 | 53 | 1013.8 |
| 20260506234553 | 22 | 284 | 12.9 | 24.1 | 0.00 | 0.00 | 0.00 | 53 | 1013.8 |
| 20260506234052 | 22 | 254 | 3.2 | 22.5 | 0.00 | 0.00 | 0.00 | 53 | 1013.7 |
| 20260506233552 | 22 | 242 | 14.5 | 24.1 | 0.00 | 0.00 | 0.00 | 53 | 1013.8 |
| 20260506232551 | 22 | 294 | 14.5 | 29.0 | 0.00 | 0.00 | 0.00 | 52 | 1013.8 |
| 20260506232051 | 22 | 280 | 6.4 | 32.2 | 0.00 | 0.00 | 0.00 | 52 | 1014.0 |
| 20260506231551 | 22 | 279 | 22.5 | 32.2 | 0.00 | 0.00 | 0.00 | 51 | 1014.1 |
| 20260506231051 | 22 | 207 | 6.4 | 27.4 | 0.00 | 0.00 | 0.00 | 51 | 1014.0 |
| 20260506230551 | 22 | 289 | 12.9 | 22.5 | 0.00 | 0.00 | 0.00 | 51 | 1014.0 |
| 20260506230051 | 22 | 205 | 12.9 | 22.5 | 0.00 | 0.00 | 0.00 | 51 | 1014.1 |
| 20260506225050 | 22 | 278 | 14.5 | 20.9 | 0.00 | 0.00 | 0.00 | 51 | 1014.2 |
| 20260506224050 | 22 | 273 | 17.7 | 25.7 | 0.00 | 0.00 | 0.00 | 51 | 1014.3 |
| 20260506223050 | 22 | 205 | 8.0 | 24.1 | 0.00 | 0.00 | 0.00 | 52 | 1014.3 |
| 20260506222550 | 22 | 272 | 22.5 | 22.5 | 0.00 | 0.00 | 0.00 | 51 | 1014.4 |
| 20260506222050 | 22 | 249 | 8.0 | 27.4 | 0.00 | 0.00 | 0.00 | 52 | 1014.4 |
| 20260506221550 | 22 | 256 | 12.9 | 27.4 | 0.00 | 0.00 | 0.00 | 53 | 1014.6 |
| 20260506221049 | 22 | 232 | 9.7 | 25.7 | 0.00 | 0.00 | 0.00 | 52 | 1014.5 |
| 20260506220549 | 22 | 287 | 6.4 | 25.7 | 0.00 | 0.00 | 0.00 | 52 | 1014.6 |
| 20260506215549 | 22 | 265 | 17.7 | 30.6 | 0.00 | 0.00 | 0.00 | 51 | 1014.9 |
| 20260506215048 | 22 | 240 | 6.4 | 24.1 | 0.00 | 0.00 | 0.00 | 51 | 1014.8 |
| 20260506214048 | 22 | 296 | 12.9 | 22.5 | 0.00 | 0.00 | 0.00 | 50 | 1015.0 |
| 20260506213548 | 22 | 323 | 14.5 | 27.4 | 0.00 | 0.00 | 0.00 | 50 | 1014.9 |
| 20260506213048 | 22 | 232 | 8.0 | 27.4 | 0.00 | 0.00 | 0.00 | 50 | 1015.0 |
| 20260506212547 | 22 | 294 | 4.8 | 20.9 | 0.00 | 0.00 | 0.00 | 49 | 1015.0 |
| 20260506212047 | 22 | 270 | 14.5 | 20.9 | 0.00 | 0.00 | 0.00 | 49 | 1015.2 |
| 20260506211548 | 22 | 333 | 8.0 | 20.9 | 0.00 | 0.00 | 0.00 | 49 | 1015.1 |
| 20260506210548 | 22 | 224 | 11.3 | 22.5 | 0.00 | 0.00 | 0.00 | 49 | 1015.3 |
| 20260506210047 | 22 | 273 | 9.7 | 25.7 | 0.00 | 0.00 | 0.00 | 50 | 1015.4 |
| 20260506205547 | 22 | 263 | 16.1 | 25.7 | 0.00 | 0.00 | 0.00 | 50 | 1015.5 |
| 20260506205047 | 22 | 261 | 19.3 | 19.3 | 0.00 | 0.00 | 0.00 | 49 | 1015.6 |
| 20260506204546 | 21 | 278 | 9.7 | 24.1 | 0.00 | 0.00 | 0.00 | 50 | 1015.5 |
| 20260506204046 | 21 | 325 | 6.4 | 24.1 | 0.00 | 0.00 | 0.00 | 51 | 1015.6 |
| 20260506203546 | 21 | 355 | 12.9 | 16.1 | 0.00 | 0.00 | 0.00 | 52 | 1015.6 |
| 20260506203046 | 21 | 263 | 12.9 | 17.7 | 0.00 | 0.00 | 0.00 | 51 | 1015.6 |
| 20260506202545 | 21 | 280 | 12.9 | 22.5 | 0.00 | 0.00 | 0.00 | 51 | 1015.7 |
| 20260506201545 | 21 | 304 | 14.5 | 22.5 | 0.00 | 0.00 | 0.00 | 52 | 1015.7 |
| 20260506201045 | 21 | 281 | 16.1 | 22.5 | 0.00 | 0.00 | 0.00 | 52 | 1015.7 |
| 20260506200545 | 21 | 345 | 6.4 | 17.7 | 0.00 | 0.00 | 0.00 | 52 | 1015.9 |
| 20260506200045 | 21 | 68 | 0.0 | 17.7 | 0.00 | 0.00 | 0.00 | 52 | 1016.0 |
| 20260506195545 | 21 | 304 | 12.9 | 20.9 | 0.00 | 0.00 | 0.00 | 52 | 1016.1 |
| 20260506195044 | 21 | 323 | 6.4 | 20.9 | 0.00 | 0.00 | 0.00 | 53 | 1016.2 |
| 20260506194044 | 21 | 320 | 4.8 | 22.5 | 0.00 | 0.00 | 0.00 | 54 | 1016.3 |
| 20260506193544 | 20 | 257 | 12.9 | 22.5 | 0.00 | 0.00 | 0.00 | 54 | 1016.3 |
| 20260506192544 | 20 | 288 | 8.0 | 19.3 | 0.00 | 0.00 | 0.00 | 54 | 1016.4 |
| 20260506192044 | 20 | 295 | 6.4 | 19.3 | 0.00 | 0.00 | 0.00 | 54 | 1016.4 |
| 20260506191544 | 20 | 288 | 12.9 | 19.3 | 0.00 | 0.00 | 0.00 | 54 | 1016.5 |
| 20260506191043 | 20 | 270 | 16.1 | 19.3 | 0.00 | 0.00 | 0.00 | 54 | 1016.5 |
| 20260506190043 | 20 | 40 | 3.2 | 20.9 | 0.00 | 0.00 | 0.00 | 54 | 1016.6 |
| 20260506185543 | 20 | 61 | 4.8 | 20.9 | 0.00 | 0.00 | 0.00 | 53 | 1016.7 |
| 20260506185042 | 20 | 177 | 0.0 | 8.0 | 0.00 | 0.00 | 0.00 | 55 | 1016.7 |
| 20260506184543 | 20 | 350 | 6.4 | 9.7 | 0.00 | 0.00 | 0.00 | 55 | 1016.8 |
| 20260506184042 | 20 | 330 | 6.4 | 9.7 | 0.00 | 0.00 | 0.00 | 56 | 1016.9 |
| 20260506183542 | 20 | 17 | 1.6 | 11.3 | 0.00 | 0.00 | 0.00 | 56 | 1016.9 |
| 20260506183042 | 20 | 76 | 8.0 | 12.9 | 0.00 | 0.00 | 0.00 | 59 | 1017.0 |
| 20260506182542 | 19 | 65 | 6.4 | 12.9 | 0.00 | 0.00 | 0.00 | 57 | 1017.0 |
| 20260506182042 | 19 | 16 | 11.3 | 11.3 | 0.00 | 0.00 | 0.00 | 59 | 1017.1 |
| 20260506181541 | 18 | 85 | 1.6 | 9.7 | 0.00 | 0.00 | 0.00 | 59 | 1017.0 |
| 20260506181041 | 18 | 51 | 6.4 | 9.7 | 0.00 | 0.00 | 0.00 | 60 | 1017.0 |
| 20260506180611 | 18 | 80 | 0.0 | 12.9 | 0.00 | 0.03 | 0.00 | 61 | 1017.0 |
| 20260506180041 | 18 | 349 | 9.7 | 12.9 | 0.00 | 0.03 | 0.00 | 62 | 1017.0 |
| 20260506175541 | 18 | 67 | 6.4 | 8.0 | 0.00 | 0.03 | 0.00 | 62 | 1017.1 |
| 20260506174040 | 17 | 70 | 0.0 | 8.0 | 0.00 | 0.03 | 0.00 | 64 | 1017.0 |
| 20260506173540 | 17 | 177 | 0.0 | 12.9 | 0.00 | 0.03 | 0.00 | 66 | 1017.0 |
| 20260506172540 | 17 | 36 | 1.6 | 12.9 | 0.00 | 0.03 | 0.00 | 66 | 1017.1 |
| 20260506172041 | 17 | 121 | 4.8 | 12.9 | 0.00 | 0.03 | 0.00 | 67 | 1017.1 |
| 20260506171540 | 16 | 336 | 4.8 | 14.5 | 0.00 | 0.03 | 0.00 | 67 | 1017.1 |
| 20260506171039 | 16 | 73 | 0.0 | 14.5 | 0.00 | 0.03 | 0.00 | 66 | 1017.3 |
| 20260506170539 | 16 | 76 | 3.2 | 12.9 | 0.00 | 0.03 | 0.00 | 67 | 1017.2 |
| 20260506170109 | 16 | 40 | 3.2 | 11.3 | 0.00 | 0.03 | 0.00 | 69 | 1017.1 |
| 20260506165539 | 16 | 24 | 0.0 | 9.7 | 0.00 | 0.03 | 0.00 | 69 | 1017.1 |
| 20260506165039 | 16 | 355 | 1.6 | 9.7 | 0.00 | 0.03 | 0.00 | 68 | 1017.1 |
| 20260506164609 | 16 | 109 | 9.7 | 9.7 | 0.00 | 0.03 | 0.00 | 71 | 1017.2 |
| 20260506163608 | 15 | 41 | 6.4 | 11.3 | 0.00 | 0.03 | 0.00 | 70 | 1017.2 |
| 20260506163108 | 15 | 21 | 11.3 | 11.3 | 0.00 | 0.03 | 0.00 | 73 | 1017.2 |
| 20260506162108 | 15 | 69 | 6.4 | 11.3 | 0.00 | 0.03 | 0.00 | 72 | 1017.2 |
| 20260506161608 | 15 | 61 | 1.6 | 11.3 | 0.00 | 0.03 | 0.00 | 73 | 1017.2 |
| 20260506161107 | 15 | 80 | 6.4 | 11.3 | 0.00 | 0.03 | 0.00 | 73 | 1017.2 |
| 20260506160607 | 15 | 53 | 9.7 | 9.7 | 0.00 | 0.03 | 0.00 | 74 | 1017.2 |
| 20260506155608 | 14 | 88 | 8.0 | 11.3 | 0.00 | 0.03 | 0.00 | 76 | 1017.1 |
| 20260506155037 | 14 | 108 | 4.8 | 11.3 | 0.00 | 0.03 | 0.00 | 76 | 1017.1 |
| 20260506154607 | 14 | 60 | 4.8 | 9.7 | 0.00 | 0.03 | 0.00 | 77 | 1017.2 |
| 20260506153606 | 14 | 60 | 3.2 | 9.7 | 0.00 | 0.03 | 0.00 | 79 | 1017.3 |
| 20260506152606 | 13 | 92 | 0.0 | 8.0 | 0.00 | 0.03 | 0.00 | 79 | 1017.3 |
| 20260506151606 | 13 | 84 | 3.2 | 11.3 | 0.00 | 0.03 | 0.00 | 82 | 1017.3 |
| 20260506150606 | 13 | 89 | 6.4 | 6.4 | 0.00 | 0.03 | 0.00 | 84 | 1017.2 |
| 20260506145605 | 13 | 85 | 1.6 | 6.4 | 0.00 | 0.03 | 0.00 | 86 | 1017.2 |
| 20260506145105 | 12 | 62 | 3.2 | 6.4 | 0.00 | 0.03 | 0.00 | 87 | 1017.3 |
| 20260506144605 | 12 | 80 | 3.2 | 6.4 | 0.00 | 0.03 | 0.00 | 88 | 1017.3 |
| 20260506144105 | 12 | 72 | 0.0 | 3.2 | 0.00 | 0.03 | 0.00 | 90 | 1017.3 |
| 20260506143605 | 12 | 78 | 0.0 | 3.2 | 0.00 | 0.03 | 0.00 | 90 | 1017.2 |
| 20260506143105 | 12 | 84 | 3.2 | 3.2 | 0.00 | 0.03 | 0.00 | 91 | 1017.2 |
| 20260506142604 | 12 | 98 | 0.0 | 3.2 | 0.00 | 0.03 | 0.00 | 92 | 1017.0 |
| 20260506142104 | 12 | 82 | 1.6 | 3.2 | 0.00 | 0.03 | 0.00 | 93 | 1017.1 |
| 20260506141604 | 11 | 82 | 0.0 | 0.0 | 0.00 | 0.03 | 0.00 | 93 | 1017.0 |
| 20260506141104 | 11 | 82 | 0.0 | 0.0 | 0.00 | 0.03 | 0.00 | 94 | 1017.0 |
| 20260506140604 | 10 | 82 | 0.0 | 0.0 | 0.00 | 0.03 | 0.00 | 92 | 1017.1 |
| 20260506140103 | 11 | 82 | 0.0 | 0.0 | 0.00 | 0.03 | 0.00 | 94 | 1017.0 |
| 20260506135603 | 10 | 82 | 0.0 | 0.0 | 0.00 | 0.03 | 0.00 | 93 | 1016.9 |
| 20260506135104 | 10 | 82 | 0.0 | 0.0 | 0.00 | 0.03 | 0.00 | 93 | 1016.9 |
| 20260506134603 | 10 | 82 | 0.0 | 0.0 | 0.00 | 0.03 | 0.00 | 93 | 1016.9 |
| 20260506134103 | 10 | 82 | 0.0 | 1.6 | 0.00 | 0.03 | 0.00 | 93 | 1016.9 |
| 20260506133603 | 10 | 82 | 0.0 | 3.2 | 0.00 | 0.03 | 0.00 | 93 | 1016.8 |
| 20260506133102 | 10 | 193 | 0.0 | 3.2 | 0.00 | 0.03 | 0.00 | 93 | 1016.8 |
| 20260506132603 | 10 | 155 | 1.6 | 3.2 | 0.00 | 0.03 | 0.00 | 93 | 1016.7 |
| 20260506131602 | 9 | 117 | 1.6 | 3.2 | 0.00 | 0.03 | 0.00 | 92 | 1016.6 |
| 20260506131102 | 9 | 209 | 1.6 | 3.2 | 0.00 | 0.03 | 0.00 | 92 | 1016.5 |
| 20260506125602 | 9 | 160 | 0.0 | 0.0 | 0.00 | 0.03 | 0.00 | 92 | 1016.4 |
| 20260506125101 | 9 | 160 | 0.0 | 0.0 | 0.00 | 0.03 | 0.00 | 92 | 1016.4 |
| 20260506124601 | 9 | 160 | 0.0 | 0.0 | 0.00 | 0.03 | 0.00 | 91 | 1016.3 |
| 20260506124101 | 9 | 160 | 0.0 | 0.0 | 0.00 | 0.03 | 0.00 | 91 | 1016.4 |
| 20260506123601 | 9 | 160 | 0.0 | 0.0 | 0.00 | 0.03 | 0.00 | 91 | 1016.3 |
| 20260506123101 | 10 | 160 | 0.0 | 0.0 | 0.00 | 0.03 | 0.00 | 91 | 1016.3 |
| 20260506122100 | 10 | 160 | 0.0 | 0.0 | 0.00 | 0.03 | 0.00 | 91 | 1016.2 |
| 20260506121600 | 10 | 160 | 0.0 | 0.0 | 0.00 | 0.03 | 0.00 | 91 | 1016.2 |
| 20260506121100 | 10 | 160 | 0.0 | 0.0 | 0.00 | 0.03 | 0.00 | 92 | 1016.1 |
| 20260506120601 | 10 | 160 | 0.0 | 0.0 | 0.00 | 0.03 | 0.00 | 91 | 1016.1 |
| 20260506115600 | 10 | 121 | 0.0 | 0.0 | 0.00 | 0.03 | 0.00 | 91 | 1016.1 |
| 20260506115059 | 10 | 121 | 0.0 | 0.0 | 0.00 | 0.05 | 0.00 | 91 | 1016.1 |
| 20260506114559 | 10 | 121 | 0.0 | 0.0 | 0.00 | 0.08 | 0.00 | 90 | 1016.1 |
| 20260506114059 | 10 | 121 | 0.0 | 0.0 | 0.00 | 0.08 | 0.00 | 91 | 1016.2 |
| 20260506113559 | 10 | 121 | 0.0 | 0.0 | 0.00 | 0.10 | 0.00 | 91 | 1016.2 |
| 20260506113059 | 10 | 111 | 0.0 | 0.0 | 0.00 | 0.10 | 0.00 | 91 | 1016.1 |
| 20260506112558 | 10 | 182 | 0.0 | 0.0 | 0.00 | 0.10 | 0.00 | 91 | 1016.0 |
| 20260506112058 | 10 | 182 | 0.0 | 0.0 | 0.00 | 0.13 | 0.00 | 91 | 1016.0 |
| 20260506111559 | 10 | 182 | 0.0 | 0.0 | 0.00 | 0.15 | 0.00 | 91 | 1016.0 |
| 20260506111058 | 10 | 182 | 0.0 | 0.0 | 0.00 | 0.15 | 0.00 | 91 | 1015.9 |
| 20260506110558 | 10 | 182 | 0.0 | 0.0 | 0.00 | 0.18 | 0.00 | 91 | 1015.9 |
| 20260506105557 | 10 | 193 | 0.0 | 3.2 | 0.00 | 0.20 | 0.00 | 90 | 1015.9 |
| 20260506105057 | 10 | 193 | 0.0 | 4.8 | 0.00 | 0.23 | 0.00 | 90 | 1015.9 |
| 20260506104558 | 10 | 193 | 1.6 | 4.8 | 0.00 | 0.25 | 0.00 | 90 | 1015.9 |
| 20260506104057 | 10 | 193 | 3.2 | 4.8 | 0.00 | 0.25 | 0.00 | 90 | 1015.9 |
| 20260506103557 | 11 | 215 | 3.2 | 3.2 | 0.00 | 0.25 | 0.00 | 89 | 1016.1 |
| 20260506103057 | 11 | 217 | 0.0 | 0.0 | 0.00 | 0.25 | 0.00 | 89 | 1016.1 |
| 20260506102556 | 11 | 217 | 0.0 | 0.0 | 0.00 | 0.25 | 0.00 | 89 | 1016.0 |
| 20260506102057 | 11 | 217 | 0.0 | 0.0 | 0.00 | 0.25 | 0.00 | 89 | 1016.0 |
| 20260506101056 | 11 | 217 | 0.0 | 4.8 | 0.00 | 0.25 | 0.00 | 89 | 1016.0 |
| 20260506100557 | 11 | 217 | 0.0 | 6.4 | 0.00 | 0.25 | 0.00 | 89 | 1016.0 |
| 20260506100056 | 11 | 219 | 0.0 | 8.0 | 0.00 | 0.28 | 0.00 | 89 | 1016.0 |
| 20260506095556 | 11 | 194 | 3.2 | 11.3 | 0.00 | 0.28 | 0.00 | 89 | 1016.1 |
| 20260506095056 | 11 | 221 | 1.6 | 14.5 | 0.00 | 0.28 | 0.00 | 89 | 1016.1 |
| 20260506094555 | 11 | 238 | 4.8 | 14.5 | 0.00 | 0.28 | 0.00 | 90 | 1016.0 |
| 20260506094055 | 12 | 210 | 6.4 | 11.3 | 0.00 | 0.28 | 0.00 | 89 | 1016.1 |
| 20260506093555 | 12 | 200 | 6.4 | 11.3 | 0.00 | 0.28 | 0.00 | 89 | 1016.1 |
| 20260506093055 | 12 | 229 | 4.8 | 14.5 | 0.00 | 0.28 | 0.00 | 89 | 1016.2 |
| 20260506092555 | 12 | 211 | 8.0 | 14.5 | 0.00 | 0.28 | 0.00 | 89 | 1016.1 |
| 20260506092055 | 12 | 211 | 6.4 | 17.7 | 0.00 | 0.28 | 0.00 | 89 | 1016.1 |
| 20260506091555 | 12 | 213 | 12.9 | 17.7 | 0.00 | 0.28 | 0.00 | 89 | 1016.2 |
| 20260506091055 | 12 | 211 | 16.1 | 17.7 | 0.00 | 0.28 | 0.00 | 88 | 1016.1 |
| 20260506090054 | 12 | 225 | 12.9 | 17.7 | 0.00 | 0.28 | 0.00 | 89 | 1016.2 |
| 20260506085554 | 11 | 216 | 9.7 | 16.1 | 0.00 | 0.28 | 0.00 | 88 | 1016.2 |
| 20260506085054 | 11 | 255 | 8.0 | 16.1 | 0.00 | 0.28 | 0.00 | 88 | 1016.2 |
| 20260506084053 | 11 | 225 | 6.4 | 14.5 | 0.00 | 0.28 | 0.00 | 88 | 1016.4 |
| 20260506083553 | 11 | 221 | 11.3 | 14.5 | 0.00 | 0.28 | 0.00 | 88 | 1016.4 |
| 20260506083053 | 11 | 242 | 12.9 | 12.9 | 0.00 | 0.28 | 0.00 | 87 | 1016.5 |
| 20260506082553 | 11 | 224 | 8.0 | 12.9 | 0.00 | 0.28 | 0.00 | 87 | 1016.5 |
| 20260506082053 | 11 | 213 | 9.7 | 11.3 | 0.00 | 0.28 | 0.00 | 87 | 1016.5 |
| 20260506081552 | 11 | 227 | 6.4 | 8.0 | 0.00 | 0.28 | 0.00 | 86 | 1016.5 |
| 20260506081052 | 11 | 212 | 4.8 | 6.4 | 0.00 | 0.28 | 0.00 | 86 | 1016.5 |
| 20260506080552 | 11 | 219 | 4.8 | 6.4 | 0.00 | 0.28 | 0.00 | 86 | 1016.6 |
| 20260506073051 | 12 | 236 | 3.2 | 6.4 | 0.00 | 0.28 | 0.00 | 84 | 1016.4 |
| 20260506072051 | 12 | 166 | 0.0 | 3.2 | 0.00 | 0.28 | 0.00 | 84 | 1016.4 |
| 20260506071550 | 12 | 155 | 1.6 | 4.8 | 0.00 | 0.28 | 0.00 | 83 | 1016.4 |
| 20260506071050 | 12 | 142 | 0.0 | 11.3 | 0.00 | 0.28 | 0.00 | 84 | 1016.4 |
| 20260506070551 | 12 | 250 | 3.2 | 11.3 | 0.00 | 0.28 | 0.00 | 83 | 1016.4 |
| 20260506062050 | 12 | 194 | 0.0 | 6.4 | 0.00 | 0.28 | 0.28 | 80 | 1016.1 |
| 20260506061549 | 12 | 192 | 0.0 | 6.4 | 0.00 | 0.28 | 0.28 | 80 | 1016.1 |
| 20260506060549 | 13 | 184 | 0.0 | 11.3 | 0.00 | 0.28 | 0.28 | 80 | 1016.0 |
| 20260506051047 | 13 | 302 | 4.8 | 16.1 | 0.00 | 0.28 | 0.28 | 77 | 1015.5 |
| 20260506050546 | 13 | 253 | 11.3 | 14.5 | 0.00 | 0.28 | 0.28 | 77 | 1015.5 |
| 20260506044546 | 13 | 203 | 16.1 | 20.9 | 0.00 | 0.28 | 0.28 | 75 | 1015.0 |
| 20260506044046 | 13 | 202 | 6.4 | 20.9 | 0.00 | 0.28 | 0.28 | 75 | 1015.0 |
| 20260506043546 | 13 | 208 | 14.5 | 20.9 | 0.00 | 0.28 | 0.28 | 74 | 1014.9 |
| 20260506043046 | 13 | 254 | 14.5 | 16.1 | 0.00 | 0.28 | 0.28 | 74 | 1014.9 |
| 20260506042546 | 13 | 190 | 4.8 | 19.3 | 0.00 | 0.28 | 0.28 | 74 | 1014.8 |
| 20260506042045 | 13 | 191 | 8.0 | 20.9 | 0.00 | 0.28 | 0.28 | 74 | 1014.8 |
| 20260506041545 | 13 | 288 | 6.4 | 20.9 | 0.00 | 0.28 | 0.28 | 73 | 1014.7 |